sat.trackr.live / text

‹ back to catalog

STARLINK-30307

NORAD 57747 · 2023-131R

PAYLOAD ACTIVE UNKNOWN

§ Identity

Operator
Country
US
Launch date
2023-09-01
Launch site
AFETR
Launch vehicle
Mass (kg)
RCS (m²)

Purposes: comms

External: N2YO · Heavens-Above · Gunter

§ Orbital elements

Epoch: 2026-05-24T22:11:46.854240Z

Period
94.27 min
Inclination
43.0027°
Eccentricity
0.0001046
Mean motion
15.27576726 rev/d
Perigee alt
482.3 km
Apogee alt
483.8 km
Semi-major
6,861.2 km
B*
3.7560e-5
RAAN
102.0834°
Arg perigee
267.4479°
Mean anomaly
92.6253°
Rev number
15,157

§ Raw data

STARLINK-303071 57747U 23131R   26144.92484785  .00000772  00000+0  37560-4 0  99942 57747  43.0027 102.0834 0001046 267.4479  92.6253 15.27576726151570

JSON: /api/v1/satellites/57747 · /tle

For live sub-satellite position, see the globe view (requires WebGL).

§ Visibility from observer

Set your observer location to see the next 7 days of passes ≥ 10°. The values pass through the URL so the page stays shareable.

No JS? Fill the form by hand. The geolocation button needs JavaScript.